This is the latest recevied weather packets stored in our database for station/object W0AVQ. If no packets are shown the sender has not sent any weather packets the latest 10 day(s).
| Time | Temp. | Humidity | Pressure | Rain* | Wind** | Luminosity | Snow |
|---|---|---|---|---|---|---|---|
| 1778071727 | 8.89° C | 99% | 1015.5 hPa | 0 mm | - | 58 W/m² | - |
| 1778071424 | 8.33° C | 99% | 1015.2 hPa | 0 mm | - | 75 W/m² | - |
| 1778071121 | 8.33° C | 99% | 1015.2 hPa | 0 mm | - | 46 W/m² | - |
| 1778070820 | 8.33° C | 99% | 1015.3 hPa | 0 mm | - | 51 W/m² | - |
| 1778070517 | 8.33° C | 99% | 1015.3 hPa | 0 mm | - | 52 W/m² | - |
| 1778070214 | 8.33° C | 99% | 1015.3 hPa | 0 mm | - | 53 W/m² | - |
| 1778069912 | 8.33° C | 99% | 1014.9 hPa | 0 mm | - | 49 W/m² | - |
| 1778069608 | 8.33° C | 99% | 1015.3 hPa | 0 mm | - | 47 W/m² | - |
| 1778069306 | 7.78° C | 99% | 1015.1 hPa | 0 mm | - | 31 W/m² | - |
| 1778069004 | 8.33° C | 99% | 1015.2 hPa | 0 mm | - | 18 W/m² | - |
| 1778068701 | 8.33° C | 99% | 1015.4 hPa | 0 mm | - | 17 W/m² | - |
| 1778068399 | 8.33° C | 99% | 1015 hPa | 0 mm | - | 20 W/m² | - |
| 1778068096 | 8.33° C | 99% | 1015 hPa | 0 mm | - | 18 W/m² | - |
| 1778067794 | 8.33° C | 99% | 1015.3 hPa | 0 mm | - | 12 W/m² | - |
| 1778067492 | 8.33° C | 99% | 1015.5 hPa | 0 mm | - | 7 W/m² | - |
| 1778067190 | 8.33° C | 99% | 1015.3 hPa | 0 mm | - | 6 W/m² | - |
| 1778066886 | 8.33° C | 99% | 1014.7 hPa | 0 mm | - | 7 W/m² | - |
| 1778066583 | 8.33° C | 99% | 1014.7 hPa | 0 mm | - | 3 W/m² | - |
| 1778066281 | 8.33° C | 99% | 1014.4 hPa | 0 mm | - | 2 W/m² | - |
| 1778065979 | 8.33° C | 99% | 1014.4 hPa | 0 mm | - | 0 W/m² | - |
| 1778065676 | 8.33° C | 99% | 1014.7 hPa | 0 mm | - | 0 W/m² | - |
| 1778065373 | 7.78° C | 99% | 1014.3 hPa | 0 mm | - | 0 W/m² | - |
| 1778065069 | 7.78° C | 99% | 1014.3 hPa | 0 mm | - | 0 W/m² | - |
| 1778064766 | 7.78° C | 99% | 1014 hPa | 0 mm | - | 0 W/m² | - |
| 1778064464 | 7.78° C | 99% | 1014 hPa | 0 mm | - | 0 W/m² | - |
* Rain latest hour (hover to see other rain measurements)
** Current wind speed in m/s (hover to see current wind gust speed)